sat.trackr.live / text

‹ back to catalog

THE ARAB SATELLITE 813

NORAD 66994 · 2025-292B

PAYLOAD ACTIVE UNKNOWN

§ Identity

Operator
Country
UAE
Launch date
2025-12-10
Launch site
JSC
Launch vehicle
Mass (kg)
RCS (m²)

External: N2YO · Heavens-Above · Gunter

§ Orbital elements

Epoch: 2026-05-25T04:17:05.576928Z

Period
95.60 min
Inclination
97.6323°
Eccentricity
0.0016232
Mean motion
15.06283007 rev/d
Perigee alt
536.3 km
Apogee alt
558.8 km
Semi-major
6,925.7 km
B*
2.6466e-4
RAAN
221.1642°
Arg perigee
80.3790°
Mean anomaly
279.9270°
Rev number
2,498

§ Raw data

THE ARAB SATELLITE 8131 66994U 25292B   26145.17853677  .00003835  00000+0  26466-3 0  99912 66994  97.6323 221.1642 0016232  80.3790 279.9270 15.06283007 24986

JSON: /api/v1/satellites/66994 · /tle

For live sub-satellite position, see the globe view (requires WebGL).

§ Visibility from observer

Set your observer location to see the next 7 days of passes ≥ 10°. The values pass through the URL so the page stays shareable.

No JS? Fill the form by hand. The geolocation button needs JavaScript.

§ Radio — SatNOGS DB

ModeDescriptionDownlinkUplink
FM S-Band Transmitter 2.223 GHz

1 transmitter · refreshed weekly from db.satnogs.org